Regional Weather Roundup
Issued by NWS

Home | Current Version | Previous Version | Text Only | Print | Product List | Glossary On
Versions: 1 2 3 4 5 6 7 8 9 10 11 12 13 14 15 16 17 18 19 20 21 22 23 24 25 26 27 28 29 30 31 32 33 34 35 36 37 38 39 40 41 42 43 44 45 46 47 48 49 50
000
ASUS43 KLMK 192002
RWRKY
KENTUCKY REGIONAL WEATHER ROUNDUP
NATIONAL WEATHER SERVICE LOUISVILLE KY
400 PM EDT SUN OCT 19 2014

NOTE "FAIR" INDICATES FEW OR NO CLOUDS BELOW 12,000 FEET
WITH NO SIGNIFICANT WEATHER AND/OR OBSTRUCTIONS TO VISIBILITY.

KYZ001>023-026-027-061>063-070>075-192100-
WESTERN AND SOUTH CENTRAL KENTUCKY

CITY           SKY/WX    TMP DP  RH WIND       PRES   REMARKS
PADUCAH        PTSUNNY   63  44  50 VRB3      30.15F
HENDERSON      SUNNY     61  41  48 CALM      30.16F
OWENSBORO      MOSUNNY   59  43  55 NW7       30.17F HAZE
HOPKINSVILLE   SUNNY     61  44  53 VRB1      30.15F
BOWLING GREEN  SUNNY     61  43  51 CALM      30.16F
GLASGOW        SUNNY     60  42  51 CALM      30.15F
$$

KYZ024-025-028>034-038-045-046-053-192100-
NORTH CENTRAL KENTUCKY

CITY           SKY/WX    TMP DP  RH WIND       PRES   REMARKS
LOUISVILLE/SDF MOSUNNY   60  40  47 VRB5      30.16F
LOUISVILLE/LOU SUNNY     58  40  51 W6        30.17F
FORT KNOX      MOSUNNY   59  42  52 W6        30.14F
$$

KYZ035>037-039>044-047>052-055>060-089>105-192100-
NORTHEAST KENTUCKY

CITY           SKY/WX    TMP DP  RH WIND       PRES   REMARKS
LEXINGTON      MOSUNNY   60  41  49 S5        30.16F
COVINGTON      MOSUNNY   57  37  47 CALM      30.16F
FRANKFORT      MOSUNNY   59  40  49 CALM      30.15F
$$

KYZ054-064>069-076>088-106>120-192100-
SOUTHEAST KENTUCKY

CITY           SKY/WX    TMP DP  RH WIND       PRES   REMARKS
JACKSON        MOSUNNY   57  38  48 NW5       30.16F
LONDON         SUNNY     61  39  44 MISG      30.16F
SOMERSET       SUNNY     57  41  54 CALM      30.16F
MIDDLESBORO    SUNNY     62  42  47 CALM      30.14F
MONTICELLO     CLEAR     62  44  51 CALM      30.16F HAZE
$$




USA.gov is the U.S. government's official web portal to all federal, state and local government web resources and services.